www.pogodaiklimat.ru

Архив погоды в Ровно (Ровенская область, Украина)

Время
(UTC), дата
21 22.09
00 23.09
03 23.09
06 23.09
09 23.09
12 23.09
15 23.09
18 23.09
21 23.09
00 24.09
03 24.09
06 24.09
09 24.09
12 24.09
15 24.09
18 24.09
21 24.09
00 25.09
03 25.09
06 25.09
09 25.09
12 25.09
15 25.09
18 25.09
21 25.09
00 26.09
03 26.09
06 26.09
09 26.09
12 26.09
15 26.09
18 26.09
21 26.09
00 27.09
03 27.09
06 27.09
09 27.09
12 27.09
15 27.09
18 27.09
21 27.09
00 28.09
03 28.09
06 28.09
09 28.09
12 28.09
15 28.09
18 28.09
21 28.09
00 29.09
03 29.09
06 29.09
09 29.09
12 29.09
15 29.09
Ветер
(напр.,м/с)
Видим. Явления Облачность Т
(С)
Тd
(С)
f
(%)
Тe
(С)
Тes
(С)
Комфортность P
(гПа)
Po
(гПа)
Тmin
(С)
Tmax
(С)
R
(мм)
R24
(мм)
S
(см)
З 3 10 км 10/10 300 м
[Cb calv]
+7.3 +7.0 98 +4 +4 холодно 1018.0 989.9
З 2 10 км 10/10 300 м
[Cb calv]
+7.4 +6.8 96 +5 +5 по сезону 1017.6 989.5
СЗ 3 10 км 10/10 600 м
[Cb calv]
+6.7 +6.1 96 +3 +3 прохладно 1017.4 989.3
СЗ 4 10 км 10/10 600 м
[Cb calv]
+7.6 +7.3 98 +4 +4 прохладно 1017.4 989.4 +6.6
СЗ 4 10 км 10/9 600 м
[Cb calv Ac und]
+10.1 +7.0 81 +7 +8 холодно 1017.2 989.4
С 3 10 км слаб. ливневой дождь 9/8 600 м
[Cb cap Ac trans]
+8.9 +5.8 81 +6 +7 очень
холодно
1016.4 988.5
СЗ 5 10 км {ливн. дождь} 6/4 600 м
[Cb calv Ac trans]
+12.2 +2.9 53 +10 +10 прохладно 1015.5 987.9
З 2 10 км {ливн. дождь} 9/5 600 м
[Sc Ac trans]
+7.2 +5.0 86 +5 +5 холодно 1016.6 988.5 +12.8 0.7
З 3 10 км 9/6 600 м
[Sc Ac trans]
+7.3 +6.1 92 +4 +4 холодно 1016.4 988.3
З 2 10 км 9/6 600 м
[Sc Ac trans]
+6.0 +5.4 96 +3 +3 прохладно 1016.3 988.1
З 3 10 км 9/5 600 м
[Sc Ac trans]
+5.6 +5.2 97 +2 +2 холодно 1016.1 987.9
З 3 10 км 9/6 600 м
[Sc Ac trans]
+7.4 +6.8 96 +4 +5 прохладно 1016.4 988.4 +5.5
СЗ 5 10 км 8/6 600 м
[Cu med, cong Ac trans]
+12.5 +6.3 66 +10 +11 по сезону 1016.1 988.6
З 5 10 км 8/6 600 м
[Cb calv Ac trans]
+13.4 +3.8 52 +12 +13 прохладно 1016.0 988.5
З 3 10 км 4/3 1000 м
[Sc diur, vesp Ac trans]
+12.4 +5.3 62 +11 +11 по сезону 1016.2 988.6
ЮЗ 2 10 км 3/0
[Ac trans]
+6.8 +5.0 88 +5 +5 холодно 1017.2 989.1 +14.5
ЮЗ 2 10 км 8/0
[Ac trans]
+6.0 +5.0 93 +3 +3 холодно 1017.7 989.5
З 2 10 км 8/0
[Ac trans]
+6.1 +5.4 95 +4 +4 прохладно 1017.5 989.3
штиль 0 10 км 5/0
[Cc]
+3.7 +3.1 96 +2 +2 холодно 1017.2 988.7
штиль 0 10 км 4/0
[Ac trans Ci fib]
+7.3 +7.0 98 +6 +8 по сезону 1016.8 988.7 +2.3
З 2 10 км 8/0
[Ac trans Ci fib]
+13.0 +7.0 67 +12 +17 по сезону 1016.1 988.6
ЮЗ 5 10 км 8/3 600 м
[Cu med, cong Ac und Ci fib]
+16.5 +7.7 56 +16 +17 по сезону 1014.1 987.0
З 1 10 км 9/4 600 м
[Sc Ac trans Ci fib]
+15.2 +7.5 60 +16 +16 тепло 1012.9 985.7
штиль 0 10 км в посл. час ливневой дождь 9/5 600 м
[Cb calv Ac trans]
+12.8 +9.6 81 +12 +12 по сезону 1012.7 985.3 +17.1 0.0
ЮЗ 3 10 км слаб. ливневой дождь 10/6 600 м
[Cb calv Ac und]
+11.5 +10.4 93 +10 +10 по сезону 1012.3 984.8
ЮЗ 3 10 км слаб. ливневой дождь 10/10 600 м
[Cb calv]
+11.0 +10.7 98 +9 +9 тепло 1011.0 983.5
ЮЗ 2 10 км в посл. час ливневой дождь 10/10 600 м
[Cb calv]
+10.8 +10.5 98 +9 +9 по сезону 1010.4 982.9
штиль 0 10 км {ливн. дождь} 10/8 300 м
[Cb calv Ac und]
+11.1 +10.8 98 +10 +10 тепло 1010.0 982.5 +10.0 5
ЮЗ 2 10 км {ливн. дождь} 8/5 600 м
[Cb calv Ac trans]
+13.9 +11.8 87 +13 +16 тепло 1009.2 982.0
Ю 2 10 км {ливн. дождь} 10/8 600 м
[Cb calv Ac und]
+16.1 +10.2 68 +16 +17 тепло 1007.9 980.9
Ю 1 5000 м слаб. ливневой дождь 10/10 300 м
[Cb calv]
+13.1 +12.2 94 +13 +13 по сезону 1007.9 980.7
В 2 3500 м в посл. час ливневой дождь 10/10 300 м
[Cb calv]
+11.7 +11.2 97 +10 +10 по сезону 1006.8 979.5 +16.5 8
ЮВ 1 6000 м дымка {ливн. дождь} 10/10 300 м
[Cb calv]
+11.5 +11.2 98 +11 +11 тепло 1005.9 978.6
штиль 0 3300 м дымка {ливн. дождь} 10/8 600 м
[Sc Ac und]
+11.5 +11.2 98 +11 +11 тепло 1004.7 977.4
штиль 0 900 м туман ?/? +11.3 +11.3 100 +11 +11 тепло 1003.5 976.2
штиль 0 7000 м дымка {туман} 10/10 300 м
[St]
+11.5 +11.2 98 +11 +11 тепло 1002.9 975.7 +11.2 3
ЮЗ 2 10 км 10/10 300 м
[Cb calv]
+12.4 +11.5 94 +11 +11 тепло 1002.6 975.5
ЮЗ 1 10 км 9/6 600 м
[Cb calv Ac trans]
+14.6 +10.2 75 +15 +17 тепло 1001.8 974.9
штиль 0 10 км 8/4 600 м
[Sc Ac trans]
+15.2 +10.4 73 +15 +15 тепло 1001.3 974.4
ЮВ 2 8000 м дымка ясно +10.7 +9.6 93 +9 +9 по сезону 1001.7 974.4 +15.8
штиль 0 3500 м дымка ясно +7.8 +7.2 96 +7 +7 по сезону 1002.0 974.4
В 3 200 м туман ясно +6.3 +6.3 100 +3 +3 по сезону 1001.2 973.5
В 2 200 м туман ?/? +6.7 +6.7 100 +4 +4 по сезону 1000.5 972.8
штиль 0 400 м туман ?/? +8.4 +8.4 100 +7 +7 по сезону 999.4 971.9 +5.6
З 4 10 км слаб. ливневой дождь {туман} 10/10 600 м
[Cb calv]
+10.4 +9.9 97 +8 +8 по сезону 1000.4 973.1
З 6 10 км {ливн. дождь, туман} 8/8 600 м
[Cu med, cong]
+13.7 +8.3 70 +12 +12 тепло 1001.0 974.0
З 3 10 км 3/3 600 м
[Cu hum]
+14.2 +8.2 67 +13 +14 тепло 1002.2 975.2
Ю 2 10 км ясно +8.8 +6.4 85 +7 +7 по сезону 1003.5 976.0 +15.5 7
Ю 2 10 км ясно +7.0 +5.3 89 +5 +5 по сезону 1004.7 976.9
Ю 1 10 км ясно +8.3 +6.4 88 +7 +7 тепло 1004.8 977.2
ЮВ 2 10 км 8/0
[Ac trans]
+7.0 +6.1 94 +5 +5 по сезону 1005.0 977.2
Ю 4 10 км 8/0
[Ac trans]
+11.2 +9.3 88 +9 +9 тепло 1004.5 977.2 +7.0
ЮВ 2 10 км 9/6 600 м
[Sc Ac trans]
+14.4 +10.2 76 +14 +15 тепло 1005.0 978.0
ЮВ 1 10 км 8/3 600 м
[Sc Ac trans]
+18.0 +10.6 62 +19 +22 тепло 1004.4 977.7
Ю 2 10 км в посл. час ливневой дождь 9/5 600 м
[Cb calv Ac trans]
+17.6 +11.2 66 +18 +18 тепло 1004.6 977.9
Местоположение метеостанции Ровно (Ровенская область, Украина): широта 50.58 долгота 26.13 высота над уровнем моря 231 м.
В архиве по умолчанию представлена погода в Ровно за последнюю неделю. Архивные данные за месяц целиком и за предыдущие месяцы, начиная с января 2011 года, Вы можете получить, выбрав интересующий диапазон дат из раскрывающегося списка и нажав кнопку "Найти!".
*Определитесь, кто Вы:
Внимание! Время в таблицах - всемирное. Для получения местного времени необходимо прибавить поправку, которая равна 2 ч.
Смотрите также архив погоды в соседних городах и на ближайших метеорологических станциях:
Партнеры нашего сайта:      
Пояснения к столбцам:
  • Ветер - указаны скорость ветра в м/с - средняя за 10 мин, порывы в срок и между сроками (в фигурных скобках) и направление, откуда дует ветер: С - северный,
  • СВ - северо-восточный, В - восточный, ЮВ - юго-восточный, Ю - южный, ЮЗ - юго-западный, З - западный, СЗ - северо-западный.
  • Видимость - горизонтальная дальность видимости в метрах или километрах. При видимости от 1 до 10 км при отсутствии осадков обычно наблюдается дымка, при ухудшении видимости до 1 км и менее - туман. В сухую погоду видимость может ухудшаться дымом, пылью или мглою.
  • Явления - указаны атмосферные явления, наблюдавшиеся в срок или в последний час перед сроком; фигурными скобками обозначены явления, наблюдавшиеся между сроками (за 1-3 часа до срока); квадратными скобками обозначены град или гололедные отложения с указанием их диаметра в мм.
  • Облачность - указаны через наклонную черту общая и нижняя облачность в баллах и высота нижней границы облаков в метрах; квадратными скобками обозначены формы облаков: Ci - перистые, Cs - перисто-слоистые, Cc - перисто-кучевые, Ac - высококучевые, As - высокослоистые, Sc - слоисто-кучевые, Ns - слоисто-дождевые, Cu - кучевые, Cb - кучево-дождевые. Подробнее классификацию облаков см. в Атласе облаков (PDF).
  • T - Температура воздуха - температура, измеренная на высоте 2 м над землей.
  • Td - Температура точки росы - температура, при понижении до которой содержащийся в воздухе водяной пар достигнет насыщения.
  • f - Относительная влажность воздуха - влажноcть воздуха, измеренная на высоте 2 м над землей.
  • Te - Эффективная температура - температура, которую ощущает одетый по сезону человек в тени. Характеристика душности погоды. При расчете учитывается влияние влажности воздуха и скорости ветра на теплоощущения человека.
  • Tes - Эффективная температура на солнце - температура, которую ощущает человек, с поправкой на солнечный нагрев. Характеристика знойности погоды. Зависит от высоты солнца над горизонтом, облачности и скорости ветра. Ночью, в пасмурную погоду, а также при ветре 12 м/с и более поправка равна нулю.
  • P - Атмосферное давление - приведенное к уровню моря атмосферное давление.
  • Po - Атмосферное давление - измеренное на уровне метеостанции атмосферное давление.
  • Tmin - Минимальная температура - минимум температуры воздуха на высоте 2 м над землей.
  • Tmax - Максимальная температура - максимум температуры воздуха на высоте 2 м над землей.
  • R - Количество осадков - Количество выпавших осадков за период времени, мм. При наведении курсора мыши на число - период времени, за который выпало указанное количество осадков.
  • R24 - Количество осадков - Количество выпавших осадков за 24 часа, мм.
  • S - Снежный покров - Высота снежного покрова, см. При наведении курсора мыши на число - состояние снежного покрова и степень покрытия местности в баллах.